RH
64 70 70 53 67 70 69 72 67 60 59 58 53 46 42 36 39 41 38 33 26 28 30 32 32 34 33 33 33 32 32 34 36 34 39 45 44 41 42 43 43 41 38 35
81 85 59 48 62 85 77 79 64 64 63 58 51 46 41 39 39 41 38 34 26 29 31 33 35 35 33 32 32 32 33 34 32 35 39 41 40 40 38 35 32 31 32 35
86 67 65 65 77 91 86 73 62 67 68 56 53 50 42 40 40 37 37 35 28 30 32 31 32 33 34 33 30 29 28 27 35 44 40 38 36 36 34 31 32 35 39 42
89 81 94 79 80 88 92 70 67 72 72 66 60 48 42 40 35 35 36 34 30 30 32 33 32 33 33 30 28 26 26 29 35 37 38 38 35 33 32 34 36 40 42 40
82 86 92 84 90 87 91 75 70 77 72 74 66 59 43 43 34 35 36 37 31 29 31 35 34 35 33 30 27 30 31 34 36 37 34 34 33 34 35 38 43 42 39 34
85 82 87 73 92 87 89 76 79 79 74 69 55 55 42 42 36 35 37 38 34 32 33 36 35 36 34 32 32 34 36 37 37 36 35 35 35 38 41 43 41 36 30 27
91 89 89 87 98 97 97 87 94 90 87 59 54 53 48 41 35 32 34 35 35 33 35 36 35 35 37 35 35 37 38 39 38 38 37 37 40 43 44 40 35 31 29 29
93 97 93 92 97 94 95 85 72 68 64 54 52 50 43 40 38 37 36 37 36 32 34 34 35 36 38 38 38 39 40 40 41 40 38 41 46 47 42 38 36 33 33 32
89 92 91 88 94 91 94 84 70 63 54 56 51 46 40 35 37 36 36 38 37 35 36 37 37 37 39 40 40 41 42 42 42 40 44 48 46 43 42 40 38 36 35 33
94 96 95 97 94 92 88 78 75 61 61 58 51 48 48 39 34 35 36 40 40 37 38 39 39 38 39 42 43 44 45 43 42 46 50 45 44 43 43 42 39 37 36 33
97 98 93 93 95 86 95 88 71 60 56 58 54 49 44 38 36 36 34 37 40 37 40 43 43 42 44 46 46 47 46 44 50 52 46 45 45 45 45 44 40 38 32 28
95 96 99 91 77 82 83 87 70 64 61 53 50 50 44 41 37 35 36 39 41 40 42 44 46 46 47 49 49 45 47 54 53 48 46 45 47 48 46 42 40 36 30 29
85 84 98 96 82 84 85 76 72 69 61 55 52 52 46 44 41 38 36 39 42 42 44 46 47 46 47 48 48 50 54 56 50 48 47 50 51 49 46 44 39 32 30 29
87 80 75 71 65 71 81 79 69 67 66 58 53 55 48 49 48 45 41 40 41 44 47 46 46 49 52 53 52 52 59 55 52 52 53 52 52 51 48 43 37 32 30 28
81 72 65 63 59 62 70 70 70 68 63 56 54 54 53 55 50 49 47 44 40 43 45 46 48 53 56 56 53 56 62 57 55 54 53 54 54 51 47 41 33 30 29 28
77 74 65 63 60 58 58 58 58 57 55 56 52 49 57 51 51 47 47 39 40 42 45 49 54 58 58 56 53 63 61 55 54 53 55 56 55 50 43 36 32 31 30 30
80 76 70 69 62 63 60 51 50 49 48 49 48 47 49 51 52 41 36 36 36 41 47 53 57 59 57 57 60 61 55 52 52 56 57 56 52 46 38 34 33 32 31 34
80 81 72 73 66 73 52 48 48 48 46 48 47 50 50 50 51 42 40 34 39 45 53 56 57 59 60 61 61 54 51 51 55 57 56 53 49 41 36 34 33 33 35 35
81 85 83 77 74 67 55 52 52 51 48 48 46 48 48 52 49 48 44 44 48 53 55 57 59 61 64 64 55 52 49 54 56 55 52 49 44 39 35 35 33 34 35 31
87 84 86 81 75 71 58 54 51 52 51 46 45 46 46 49 50 49 49 52 52 53 56 59 63 65 66 52 48 46 52 55 54 52 49 45 41 37 36 32 33 35 33 27
90 92 92 93 81 69 59 57 54 56 55 52 46 44 45 49 50 52 54 55 59 61 61 64 64 58 47 42 43 49 53 54 51 48 48 45 39 35 30 33 35 31 26 24
83 88 89 92 90 83 65 61 61 61 58 56 53 52 53 55 55 57 58 56 56 59 62 54 46 40 39 44 49 51 51 48 47 50 47 38 32 29 32 34 31 26 26 26
80 71 71 69 71 69 65 64 63 62 60 57 54 54 55 56 57 57 58 57 53 48 45 41 37 41 45 48 49 48 47 48 52 47 36 29 29 33 35 33 29 28 29 28
69 71 69 68 69 70 70 70 67 61 54 60 59 59 62 61 59 58 52 51 42 37 36 39 43 45 45 46 48 49 51 52 42 33 28 30 33 37 36 33 32 31 31 30
74 74 73 71 73 71 67 59 54 58 69 66 64 62 59 57 55 51 47 41 39 40 44 45 42 42 44 48 52 52 52 37 30 28 30 34 38 38 36 34 33 32 32 34
72 68 67 62 57 54 54 57 63 65 63 63 63 64 65 63 57 52 47 44 44 44 42 42 42 45 50 53 50 47 34 29 29 30 35 39 40 40 37 34 32 33 34 35